This is the latest recevied weather packets stored in our database for station/object KA1JKB. If no packets are shown the sender has not sent any weather packets the latest 10 day(s).
| Time | Temp. | Humidity | Pressure | Rain* | Wind** | Luminosity | Snow |
|---|---|---|---|---|---|---|---|
| 1787934297 | 24.44° C | 57% | 1019.7 hPa | 0 mm | - | 719 W/m² | - |
| 1787933996 | 23.89° C | 55% | 1019.6 hPa | 0 mm | - | 701 W/m² | - |
| 1787933696 | 24.44° C | 53% | 1019.8 hPa | 0 mm | - | 738 W/m² | - |
| 1787933391 | 23.89° C | 54% | 1019.7 hPa | 0 mm | - | 766 W/m² | - |
| 1787933091 | 23.33° C | 56% | 1019.8 hPa | 0 mm | - | 744 W/m² | - |
| 1787932789 | 23.89° C | 55% | 1019.9 hPa | 0 mm | - | 748 W/m² | - |
| 1787932485 | 23.89° C | 59% | 1019.7 hPa | 0 mm | - | 757 W/m² | - |
| 1787932180 | 23.33° C | 58% | 1019.8 hPa | 0 mm | - | 751 W/m² | - |
| 1787931878 | 23.89° C | 56% | 1019.7 hPa | 0 mm | - | 782 W/m² | - |
| 1787931573 | 23.89° C | 61% | 1019.7 hPa | 0 mm | - | 798 W/m² | - |
| 1787931268 | 23.89° C | 61% | 1019.6 hPa | 0 mm | - | 809 W/m² | - |
| 1787930967 | 22.78° C | 62% | 1019.5 hPa | 0 mm | - | 791 W/m² | - |
| 1787930667 | 22.78° C | 62% | 1019.7 hPa | 0 mm | - | 764 W/m² | - |
| 1787930361 | 22.78° C | 63% | 1019.7 hPa | 0 mm | - | 747 W/m² | - |
| 1787930057 | 22.78° C | 64% | 1019.6 hPa | 0 mm | - | 749 W/m² | - |
| 1787929755 | 22.22° C | 64% | 1019.4 hPa | 0 mm | - | 735 W/m² | - |
| 1787929450 | 22.22° C | 65% | 1019.5 hPa | 0 mm | - | 694 W/m² | - |
| 1787929148 | 21.67° C | 64% | 1019.7 hPa | 0 mm | - | 718 W/m² | - |
| 1787928843 | 21.67° C | 65% | 1019.6 hPa | 0 mm | - | 673 W/m² | - |
| 1787928542 | 22.22° C | 67% | 1019.8 hPa | 0 mm | - | 143 W/m² | - |
| 1787928241 | 22.22° C | 69% | 1019.4 hPa | 0 mm | - | 658 W/m² | - |
| 1787927940 | 21.11° C | 70% | 1019.6 hPa | 0 mm | - | 656 W/m² | - |
| 1787927635 | 21.11° C | 69% | 1019.5 hPa | 0 mm | - | 611 W/m² | - |
| 1787927330 | 21.11° C | 72% | 1019.5 hPa | 0 mm | - | 573 W/m² | - |
| 1787927026 | 20.56° C | 73% | 1019.6 hPa | 0 mm | - | 553 W/m² | - |
* Rain latest hour (hover to see other rain measurements)
** Current wind speed in m/s (hover to see current wind gust speed)